Flagstaff, AZ

12:37 AM MST on May 25, 2018 (GMT -0700)
Flagstaff Pulliam

Weather History for KFLG - September, 2012

Change the Weather History Date:

Thursday, September 27, 2012

  Actual Average Record
Temperature  
Mean Temperature 54 °F 54 °F  
Max Temperature 72 °F 69 °F 83 °F (1963)
Min Temperature 35 °F 38 °F 23 °F (1900)
Degree Days  
Heating Degree Days 11 12  
Month to date heating degree days 145 193  
Since 1 July heating degree days 179 281  
Cooling Degree Days 0 0  
Month to date cooling degree days 0 0  
Year to date cooling degree days 164 114  
Growing Degree Days 2 (Base 50)    
Moisture  
Dew Point 32 °F    
Average Humidity 50    
Maximum Humidity 76    
Minimum Humidity 23    
Precipitation  
Precipitation 0.00 in 0.07 in 1.56 in (1903)
Month to date precipitation 0.26 2.19  
Year to date precipitation 10.76 16.38  
Snow  
Snow 0.00 in 0.00 in 0.00 in (2002)
Month to date snowfall 0.0 0.0  
Since 1 July snowfall 0.0 0.0  
Snow Depth 0.00 in    
Sea Level Pressure  
Sea Level Pressure 30.05 in    
Wind  
Wind Speed 2 mph (SE)    
Max Wind Speed 10 mph    
Max Gust Speed 15 mph    
Visibility 10 miles    
Events      
T = Trace of Precipitation, MM = Missing Value Source: NWS Daily Summary

Daily Weather History Graph

Daily Weather History Graph

Search for Another Location

Airport or City:

Astronomy

Sep. 27, 2012 Rise Set
Actual Time 6:18 AM MST 6:15 PM MST
Civil Twilight 5:53 AM MST 6:40 PM MST
Nautical Twilight 5:24 AM MST 7:10 PM MST
Astronomical Twilight 4:54 AM MST 7:39 PM MST
Moon 4:46 PM MST (9/27) 3:55 AM MST (9/27)
Length of Visible Light 12h 47m
Length of Day
11h 56m
Waxing Gibbous, 94% of the Moon is Illuminated
Sep 27
Waxing Gibbous
Sep 29
Full
Oct 8
Last Quarter
Oct 15
New
Oct 21
First Quarter

Hourly Weather History & Observations

Time (MST) Temp. Dew Point Humidity Pressure Visibility Wind Dir Wind Speed Gust Speed Precip Events Conditions
12:57 AM 41.0 °F 30.0 °F 65% 30.03 in 10.0 mi Calm Calm - N/A   Clear
1:57 AM 39.0 °F 30.0 °F 70% 30.03 in 10.0 mi Calm Calm - N/A   Clear
2:57 AM 37.9 °F 28.9 °F 70% 30.04 in 10.0 mi Calm Calm - N/A   Clear
3:57 AM 37.0 °F 28.9 °F 73% 30.04 in 10.0 mi Calm Calm - N/A   Clear
4:57 AM 35.1 °F 28.9 °F 78% 30.06 in 10.0 mi Calm Calm - N/A   Clear
6:57 AM 37.9 °F 30.0 °F 73% 30.11 in 10.0 mi Calm Calm - N/A   Clear
7:57 AM 52.0 °F 35.1 °F 53% 30.09 in 10.0 mi Calm Calm - N/A   Clear
8:57 AM 62.1 °F 37.0 °F 39% 30.06 in 10.0 mi ENE 4.6 mph - N/A   Clear
9:57 AM 64.9 °F 33.1 °F 31% 30.08 in 10.0 mi East 3.5 mph - N/A   Clear
10:57 AM 64.9 °F 30.0 °F 27% 30.07 in 10.0 mi Variable 4.6 mph - N/A   Clear
11:57 AM 66.0 °F 30.0 °F 26% 30.06 in 10.0 mi Calm Calm - N/A   Scattered Clouds
12:57 PM 69.1 °F 30.9 °F 24% 30.04 in 10.0 mi Calm Calm - N/A   Scattered Clouds
1:57 PM 68.0 °F 30.9 °F 25% 30.04 in 10.0 mi West 5.8 mph - N/A   Mostly Cloudy
2:57 PM 68.0 °F 32.0 °F 26% 30.03 in 10.0 mi South 4.6 mph - N/A   Partly Cloudy
3:57 PM 70.0 °F 30.0 °F 23% 30.01 in 10.0 mi SW 4.6 mph - N/A   Mostly Cloudy
4:57 PM 66.9 °F 33.1 °F 28% 30.04 in 10.0 mi East 4.6 mph - N/A   Overcast
5:57 PM 66.0 °F 33.1 °F 29% 30.04 in 10.0 mi South 3.5 mph - N/A   Overcast
6:57 PM 63.0 °F 33.1 °F 33% 30.06 in 10.0 mi East 3.5 mph - N/A   Overcast
7:57 PM 57.0 °F 34.0 °F 42% 30.05 in 10.0 mi Calm Calm - N/A   Scattered Clouds
8:57 PM 53.1 °F 32.0 °F 45% 30.04 in 10.0 mi Calm Calm - N/A   Partly Cloudy
9:57 PM 48.0 °F 32.0 °F 54% 30.04 in 10.0 mi Calm Calm - N/A   Clear
10:57 PM 46.0 °F 32.0 °F 58% 30.04 in 10.0 mi Calm Calm - N/A   Clear
11:57 PM 42.1 °F 32.0 °F 67% 30.05 in 10.0 mi Calm Calm - N/A   Clear